Wind_Speed
26 26 25 23 22 21 20 18 17 15 14 13 11 10 8 7 7 9 10 12 14 16 17 17 17 17 17 16 17 17 15 12 10 9 8 7 7 6 4 4 3 2
27 26 25 25 24 23 21 19 17 16 15 14 12 11 10 9 9 9 9 11 13 15 17 18 18 18 18 18 18 18 17 14 13 11 10 9 9 8 7 5 4 2
27 26 25 25 25 24 22 21 19 18 16 15 14 13 12 11 11 10 9 10 11 14 16 18 18 19 19 19 19 19 19 17 15 14 12 11 10 10 10 8 6 5
27 25 24 24 25 24 24 23 21 19 18 17 16 15 14 13 12 12 11 10 11 12 15 17 18 19 20 20 20 20 21 19 17 16 15 13 13 12 12 10 8 7
26 24 24 24 25 26 26 25 23 21 19 18 17 17 16 15 14 14 13 12 11 12 14 16 17 18 19 20 21 21 21 21 20 19 18 16 15 14 13 13 11 10
26 26 25 25 26 27 27 25 23 22 20 19 19 19 19 18 17 16 14 14 13 13 13 14 16 17 18 20 21 21 22 22 22 22 20 18 17 17 16 15 14 13
27 27 27 26 27 28 27 25 24 23 22 21 22 21 21 21 20 18 16 16 15 15 15 15 15 17 18 19 21 21 22 23 23 23 22 21 19 19 18 17 16 15
27 28 27 27 28 28 27 26 25 25 24 24 24 24 23 22 22 21 20 18 17 17 18 18 17 16 17 19 20 21 22 24 24 24 24 23 22 20 19 19 18 18
27 28 28 28 28 29 28 27 26 25 26 26 26 25 24 24 23 23 22 22 20 19 19 21 20 18 18 19 19 20 22 24 25 25 25 25 24 23 22 21 21 20
26 28 28 29 29 29 28 27 27 26 26 27 27 27 26 26 25 24 25 25 24 23 22 22 22 22 20 20 19 20 21 23 25 26 27 26 26 26 25 24 23 22
27 28 29 29 30 29 28 27 27 27 27 28 28 28 28 28 27 26 26 26 26 26 24 23 23 24 23 22 21 20 21 23 25 27 28 28 27 28 28 27 26 25
27 28 29 29 29 29 28 28 28 28 29 29 29 29 30 30 29 28 28 28 28 27 27 26 25 25 25 25 23 22 22 22 24 27 29 29 29 29 30 30 29 28
27 28 28 28 27 28 28 28 28 29 29 29 28 29 30 31 30 30 29 30 29 28 28 28 27 27 27 27 26 24 23 23 24 26 28 30 30 30 31 32 32 32
27 27 27 26 26 27 27 28 28 28 29 28 28 28 29 30 30 31 30 30 30 29 29 29 29 29 29 29 27 26 26 25 24 25 28 30 30 31 32 32 33 33
27 27 28 27 27 27 27 28 27 27 28 28 27 26 26 26 27 29 30 29 27 27 28 28 30 30 30 30 29 27 27 26 25 25 26 29 30 30 31 32 33 34
29 28 28 28 28 28 27 27 27 26 26 26 26 25 23 22 23 25 27 26 23 22 24 26 28 29 28 28 28 27 27 27 26 25 26 27 29 29 30 30 31 33
33 31 29 29 29 28 28 27 26 26 25 24 24 23 22 20 20 21 23 23 19 16 18 21 23 23 22 23 24 25 25 26 27 26 26 27 28 29 30 30 30 31
34 34 32 30 29 28 27 26 26 26 25 24 23 22 21 20 19 19 20 21 18 14 13 16 17 17 17 17 19 21 23 25 27 27 27 28 28 29 30 30 30 31
32 35 35 33 31 29 28 27 26 26 25 24 23 22 22 21 20 20 20 20 20 17 14 14 15 16 16 15 16 18 20 23 26 27 28 28 28 29 30 30 31 31
28 33 36 35 34 32 30 29 28 27 26 24 24 23 23 22 22 21 21 21 22 21 19 17 16 17 17 17 18 18 19 21 24 26 27 28 28 29 30 31 31 32
23 28 33 36 36 35 34 33 30 28 27 27 26 25 24 24 24 23 23 23 23 24 24 22 19 18 19 19 19 20 21 22 23 25 27 28 29 29 30 31 32 33
20 23 27 33 37 37 37 35 33 31 30 29 28 27 26 26 26 26 26 25 24 25 26 25 23 22 21 20 20 20 22 23 25 27 28 29 31 31 31 31 32 33
20 20 22 28 34 37 37 36 35 33 32 31 31 30 30 29 28 28 28 27 27 27 27 27 26 25 24 23 23 23 24 25 27 28 29 31 32 33 34 34 34 34
20 20 20 24 31 35 36 36 36 35 34 34 33 33 32 32 31 31 31 30 30 29 29 28 28 28 28 27 27 28 29 29 30 30 32 32 33 35 36 36 37 37
20 20 20 22 27 32 35 36 36 36 36 35 35 34 35 34 34 34 33 33 32 32 31 30 30 30 31 31 31 32 33 34 35 36 35 34 35 36 36 37 38 39
20 20 21 22 25 30 34 35 35 36 36 36 36 35 36 36 35 35 34 33 34 34 33 33 33 34 34 35 36 37 38 39 40 40 39 37 38 39 39 40 40 40
Wind_Direction
220 222 225 225 223 223 224 224 225 229 233 235 235 235 235 231 228 233 239 238 237 236 234 234 235 239 241 241 239 239 239 238 236 241 245 240 240 242 224 194 182 148
221 222 224 224 222 223 224 225 225 228 233 237 237 236 235 236 236 236 238 240 240 240 239 237 237 240 244 244 242 241 240 239 239 241 244 243 239 239 234 221 216 225
222 223 224 224 222 222 224 227 226 227 232 236 238 238 235 236 240 241 240 239 239 241 242 243 242 242 246 248 246 243 242 240 240 242 242 243 243 240 237 234 233 244
222 224 224 223 222 222 224 227 227 227 229 234 239 242 240 239 240 244 246 244 240 241 243 247 247 245 246 249 248 245 243 242 241 243 243 243 246 246 242 240 242 248
222 223 224 223 222 222 224 226 227 228 229 233 238 242 245 245 243 243 246 248 248 247 247 250 251 249 247 248 249 246 244 244 243 245 246 245 247 250 248 245 246 250
221 222 223 223 223 223 225 226 228 230 231 234 238 240 243 246 248 246 244 247 251 253 254 254 255 255 252 250 250 248 244 243 244 246 248 248 248 251 253 251 250 254
217 219 221 222 223 225 226 226 229 231 232 235 238 240 242 244 249 251 250 247 249 254 258 259 259 260 258 254 253 251 247 244 243 245 248 249 249 250 253 254 254 255
215 217 220 222 224 225 226 226 228 231 233 236 238 241 243 245 249 253 256 254 251 252 258 262 263 263 263 260 256 255 252 248 244 244 246 249 250 250 252 255 255 256
215 216 218 221 223 224 225 226 227 230 233 236 239 243 246 248 250 253 256 257 257 255 255 260 264 266 266 266 262 257 255 252 249 246 245 247 250 251 252 254 256 257
215 216 217 220 222 224 225 226 228 231 233 236 240 244 247 250 252 253 254 256 258 258 257 258 263 267 269 269 268 263 257 255 253 250 248 246 248 250 252 253 255 257
216 216 217 219 222 225 226 227 230 233 235 237 241 244 248 251 253 254 255 256 258 260 261 261 263 267 269 270 271 268 262 257 255 254 252 250 248 249 251 253 255 257
217 217 219 220 222 225 227 229 231 235 238 239 241 244 248 252 254 255 256 258 259 260 262 263 263 265 268 269 270 269 265 260 257 255 255 254 251 249 251 253 255 256
218 217 218 219 220 223 227 230 232 235 238 240 241 242 246 251 255 257 258 259 261 261 261 263 264 264 265 267 268 268 267 263 259 257 256 256 255 252 251 253 255 256
221 219 218 218 219 221 225 229 231 234 238 241 242 243 245 250 256 261 261 260 261 261 260 260 261 261 262 263 264 265 266 264 261 258 257 258 258 256 253 253 254 256
226 223 221 219 219 219 222 226 229 232 236 241 244 246 246 249 253 258 261 261 259 258 257 256 257 258 258 259 260 261 263 265 263 260 258 259 260 259 257 255 254 256
227 226 223 222 221 220 221 223 226 230 234 238 242 245 245 245 245 250 257 261 260 256 253 253 254 257 257 258 259 259 260 262 263 261 258 259 261 262 261 259 257 258
227 227 225 223 223 223 223 223 224 228 231 234 237 241 242 241 240 242 250 260 263 257 251 252 255 260 261 260 260 260 259 260 262 263 261 259 260 262 263 263 261 260
229 227 226 224 224 225 225 225 225 227 231 234 235 237 241 241 240 241 247 258 266 262 251 251 258 264 265 264 262 261 261 261 262 264 264 263 261 261 263 265 265 264
236 230 226 225 224 224 226 227 227 227 231 235 236 238 243 244 244 244 245 252 262 264 258 254 257 261 263 264 264 262 261 261 262 264 265 266 265 263 263 264 266 266
243 235 229 226 225 225 227 228 229 230 232 237 240 242 244 246 247 248 247 249 256 263 266 263 258 258 260 263 265 266 265 263 264 266 267 268 267 266 265 264 265 266
248 241 234 229 226 226 228 230 232 233 234 238 242 244 245 247 250 252 253 253 255 260 266 267 264 262 261 262 263 265 268 268 268 268 270 271 271 269 267 265 264 265
249 247 240 232 228 227 228 230 232 235 236 239 243 245 246 248 250 252 255 257 258 259 263 267 270 271 270 269 267 265 266 267 268 269 271 273 274 274 274 272 269 267
248 248 244 236 231 229 229 230 232 234 236 239 241 245 248 249 251 254 256 260 262 263 264 267 272 275 277 278 276 272 269 266 265 267 270 272 274 276 277 277 276 274
248 245 243 238 233 230 230 230 232 233 235 238 240 243 248 250 253 256 258 261 264 265 267 268 270 273 276 278 278 278 277 273 270 268 267 269 271 272 274 277 278 279
252 245 241 239 234 231 230 230 232 233 235 237 239 242 245 249 253 256 258 260 262 264 266 267 269 270 271 273 275 276 277 277 276 273 270 269 269 270 272 274 276 277
256 247 240 240 236 232 231 231 232 234 235 237 239 241 243 246 250 254 256 258 260 262 264 265 266 267 267 268 269 270 272 274 274 275 275 274 273 271 271 271 272 274
Height
3184 3186 3188 3190 3192 3193 3195 3197 3198 3200 3201 3202 3203 3204 3205 3205 3206 3207 3208 3209 3210 3211 3213 3214 3215 3216 3217 3218 3219 3220 3221 3222 3223 3224 3225 3225 3226 3226 3226 3226 3226 3226
3182 3184 3186 3188 3190 3191 3193 3195 3197 3198 3199 3200 3202 3203 3204 3204 3205 3206 3207 3208 3209 3210 3211 3212 3214 3215 3215 3216 3217 3218 3220 3221 3222 3223 3224 3225 3225 3226 3226 3226 3226 3226
3179 3181 3183 3185 3187 3190 3191 3193 3195 3196 3198 3199 3200 3201 3202 3203 3204 3204 3206 3206 3207 3208 3209 3210 3212 3213 3214 3215 3216 3217 3218 3220 3221 3222 3223 3224 3224 3225 3226 3226 3226 3226
3177 3179 3181 3183 3185 3188 3189 3191 3192 3194 3196 3197 3198 3199 3200 3201 3202 3203 3204 3205 3206 3207 3208 3209 3210 3211 3213 3213 3215 3216 3217 3218 3220 3220 3221 3223 3223 3224 3225 3225 3226 3226
3175 3177 3179 3181 3183 3185 3186 3188 3190 3192 3194 3195 3196 3197 3198 3200 3201 3202 3203 3204 3205 3206 3206 3207 3208 3210 3211 3212 3213 3214 3215 3217 3218 3219 3220 3221 3222 3223 3224 3224 3225 3225
3173 3175 3177 3179 3181 3182 3184 3186 3188 3190 3191 3193 3194 3195 3197 3198 3199 3200 3202 3203 3203 3204 3205 3206 3207 3208 3209 3210 3211 3212 3213 3215 3216 3217 3218 3219 3220 3221 3222 3223 3223 3224
3170 3172 3175 3176 3178 3180 3182 3184 3186 3187 3189 3191 3192 3193 3195 3196 3197 3198 3200 3201 3202 3203 3203 3204 3205 3206 3207 3208 3209 3210 3211 3213 3214 3215 3216 3217 3218 3219 3220 3221 3222 3222
3168 3170 3172 3174 3176 3177 3179 3182 3184 3185 3187 3188 3189 3191 3193 3194 3195 3196 3198 3199 3201 3202 3202 3203 3204 3205 3205 3206 3207 3208 3209 3210 3211 3213 3214 3215 3216 3217 3218 3219 3220 3221
3166 3168 3170 3171 3173 3174 3177 3179 3181 3183 3185 3186 3187 3189 3191 3192 3194 3195 3196 3197 3198 3200 3201 3201 3201 3203 3204 3204 3205 3206 3207 3208 3209 3210 3211 3213 3214 3215 3216 3217 3218 3219
3163 3165 3167 3169 3170 3172 3174 3177 3179 3181 3182 3184 3185 3187 3188 3190 3191 3193 3194 3195 3195 3197 3198 3199 3200 3201 3202 3202 3203 3204 3205 3206 3206 3207 3208 3210 3211 3212 3214 3215 3215 3217
3161 3163 3164 3166 3168 3170 3172 3175 3177 3178 3180 3182 3183 3185 3186 3187 3189 3190 3191 3192 3193 3194 3196 3197 3198 3198 3199 3200 3201 3202 3203 3204 3204 3204 3205 3207 3208 3210 3211 3212 3213 3214
3159 3160 3162 3164 3166 3168 3170 3173 3174 3176 3177 3179 3181 3183 3184 3185 3186 3188 3188 3189 3191 3192 3193 3194 3195 3196 3196 3197 3199 3199 3200 3201 3202 3202 3203 3204 3205 3207 3208 3209 3210 3211
3156 3158 3160 3162 3164 3166 3168 3170 3172 3173 3175 3176 3179 3180 3182 3182 3183 3184 3186 3187 3188 3190 3191 3191 3192 3193 3194 3195 3196 3197 3197 3198 3199 3200 3200 3201 3202 3203 3205 3206 3207 3208
3154 3156 3158 3160 3162 3164 3166 3167 3169 3171 3172 3174 3175 3177 3179 3180 3180 3181 3182 3184 3185 3187 3188 3189 3189 3190 3191 3191 3193 3194 3195 3195 3197 3198 3198 3198 3199 3200 3202 3203 3204 3205
3153 3155 3157 3158 3160 3162 3163 3165 3167 3168 3170 3171 3172 3174 3176 3178 3179 3178 3179 3181 3182 3183 3185 3186 3186 3186 3187 3188 3189 3191 3192 3192 3193 3195 3195 3196 3196 3197 3198 3199 3200 3201
3150 3152 3154 3156 3157 3159 3161 3162 3164 3166 3167 3169 3170 3171 3173 3175 3176 3177 3176 3177 3179 3180 3182 3182 3182 3183 3184 3185 3186 3188 3189 3189 3190 3191 3192 3193 3193 3194 3195 3196 3197 3198
3147 3149 3152 3153 3155 3157 3158 3160 3162 3164 3165 3166 3168 3169 3170 3172 3174 3175 3175 3175 3176 3178 3179 3179 3180 3180 3181 3182 3184 3185 3186 3186 3187 3188 3189 3190 3190 3191 3191 3193 3194 3195
3144 3146 3149 3151 3153 3154 3156 3158 3160 3161 3162 3164 3165 3166 3168 3170 3171 3172 3173 3173 3173 3175 3176 3177 3178 3178 3179 3180 3181 3182 3183 3184 3184 3185 3185 3186 3187 3188 3188 3189 3190 3191
3140 3143 3145 3148 3150 3152 3154 3155 3157 3158 3159 3161 3163 3164 3166 3167 3168 3170 3171 3172 3172 3172 3174 3175 3176 3176 3177 3178 3179 3180 3181 3181 3182 3182 3182 3183 3183 3184 3185 3186 3186 3187
3137 3139 3142 3145 3147 3150 3151 3152 3154 3155 3157 3159 3160 3162 3163 3164 3166 3167 3169 3170 3170 3170 3171 3172 3173 3174 3175 3176 3177 3177 3178 3179 3179 3179 3179 3179 3179 3180 3181 3182 3182 3183
3133 3136 3139 3142 3144 3146 3148 3149 3151 3153 3155 3156 3158 3159 3160 3162 3163 3164 3165 3167 3168 3168 3168 3169 3170 3172 3173 3174 3175 3175 3176 3176 3176 3176 3176 3175 3175 3176 3177 3177 3178 3178
3131 3133 3135 3138 3141 3143 3144 3146 3148 3150 3152 3154 3155 3156 3157 3159 3160 3161 3162 3163 3165 3166 3166 3166 3167 3168 3169 3170 3172 3173 3173 3173 3173 3173 3173 3172 3172 3172 3173 3173 3174 3174
3128 3130 3133 3135 3137 3139 3141 3143 3145 3147 3149 3151 3152 3153 3154 3155 3157 3158 3159 3160 3161 3162 3163 3164 3164 3165 3166 3166 3167 3168 3169 3170 3170 3170 3169 3169 3169 3169 3169 3169 3169 3170
3126 3128 3130 3132 3134 3136 3138 3140 3142 3144 3146 3148 3149 3151 3152 3153 3154 3155 3156 3157 3157 3158 3159 3161 3161 3162 3162 3162 3163 3163 3163 3164 3166 3166 3166 3166 3165 3165 3165 3165 3165 3166
3123 3125 3127 3129 3131 3133 3135 3137 3139 3141 3143 3144 3146 3148 3149 3150 3150 3151 3152 3153 3154 3155 3156 3157 3158 3159 3159 3159 3159 3159 3159 3159 3160 3161 3161 3162 3162 3162 3162 3161 3161 3161
3120 3122 3124 3126 3128 3130 3132 3134 3136 3138 3139 3141 3142 3144 3145 3146 3147 3148 3148 3149 3150 3151 3152 3153 3153 3154 3155 3155 3155 3155 3155 3155 3155 3155 3156 3157 3158 3158 3158 3157 3157 3157